Regional Weather Roundup
Issued by NWS

Home | Current Version | Previous Version | Text Only | Print | Product List | Glossary Off
Versions: 1 2 3 4 5 6 7 8 9 10 11 12 13 14 15 16 17 18 19 20 21 22 23 24 25 26 27 28 29 30 31 32 33 34 35 36 37 38 39 40 41 42 43 44 45 46 47 48 49 50

000
ASUS43 KBIS 241710
RWRND

NORTH DAKOTA REGIONAL WEATHER ROUNDUP
NATIONAL WEATHER SERVICE BISMARCK ND
1100 AM CST TUE JAN 24 2017

NOTE: "FAIR" INDICATES FEW OR NO CLOUDS BELOW 12,000 FEET WITH NO
SIGNIFICANT WEATHER AND/OR OBSTRUCTIONS TO VISIBILITY.


NDZ001>003-009>011-017-241800-
NORTHWEST NORTH DAKOTA

CITY           SKY/WX    TMP DP  RH WIND       PRES   REMARKS
WILLISTON      FLURRIES  20  15  81 NW8       29.92R WCI  10
MINOT          CLOUDY    23  16  74 W14       29.88R WCI  11
$$

NDZ018>021-031>035-040>046-241800-
SOUTHWEST NORTH DAKOTA

CITY           SKY/WX    TMP DP  RH WIND       PRES   REMARKS
BISMARCK       CLOUDY    25  18  74 N7        29.90S WCI  17
DICKINSON      CLOUDY    20  15  81 NW9       29.84R WCI   9
GARRISON         N/A     22  17  81 W8        29.87R WCI  12
HETTINGER ARPT CLOUDY    21  18  88 NW10      29.87R WCI  10
$$

NDZ004>008-012>016-024-026-027-054-241800-
NORTHEAST NORTH DAKOTA

CITY           SKY/WX    TMP DP  RH WIND       PRES   REMARKS
GRAND FORKS    CLOUDY    28  20  71 W8        29.89R WCI  20
GRND FRKS AFB  CLOUDY    27  21  77 NW7       29.89R WCI  20
DEVILS LAKE    CLOUDY    22  19  89 W10       29.87R WCI  11
$$

NDZ022-023-025-028>030-036>039-047>053-241800-
SOUTHEAST NORTH DAKOTA

CITY           SKY/WX    TMP DP  RH WIND       PRES   REMARKS
FARGO          CLOUDY    28  22  78 NW8       29.90S WCI  20
JAMESTOWN      CLOUDY    24  19  81 W8        29.87R WCI  15
$$





USA.gov is the U.S. government's official web portal to all federal, state and local government web resources and services.